TimeEDT,TemperatureF,Dew PointF,Humidity,Sea Level PressureIn,VisibilityMPH,Wind Direction,Wind SpeedMPH,Gust SpeedMPH,PrecipitationIn,Events,Conditions,WindDirDegrees,DateUTC
12:53 AM,79.0,73.9,84,30.09,10.0,SSW,4.6,-,N/A,,Clear,210,2013-08-12 04:53:00
1:53 AM,79.0,73.9,84,30.08,10.0,Calm,Calm,-,N/A,,Clear,0,2013-08-12 05:53:00
2:53 AM,78.1,73.9,87,30.07,10.0,Calm,Calm,-,N/A,,Clear,0,2013-08-12 06:53:00
3:53 AM,77.0,73.9,90,30.07,8.0,Calm,Calm,-,N/A,,Clear,0,2013-08-12 07:53:00
4:53 AM,77.0,73.9,90,30.07,9.0,Calm,Calm,-,N/A,,Clear,0,2013-08-12 08:53:00
5:53 AM,75.9,73.9,94,30.07,8.0,Calm,Calm,-,N/A,,Clear,0,2013-08-12 09:53:00
6:53 AM,75.9,73.0,91,30.08,5.0,Calm,Calm,-,N/A,,Clear,0,2013-08-12 10:53:00
7:53 AM,77.0,73.9,90,30.08,8.0,SW,5.8,-,N/A,,Clear,230,2013-08-12 11:53:00
8:53 AM,82.0,73.9,76,30.09,10.0,West,5.8,-,N/A,,Clear,270,2013-08-12 12:53:00
9:53 AM,84.9,73.0,67,30.08,10.0,Variable,3.5,-,N/A,,Clear,0,2013-08-12 13:53:00
10:53 AM,88.0,73.9,63,30.07,10.0,West,4.6,-,N/A,,Clear,280,2013-08-12 14:53:00
11:53 AM,90.0,73.0,57,30.06,10.0,Variable,4.6,-,N/A,,Clear,0,2013-08-12 15:53:00
12:53 PM,91.9,72.0,52,30.05,10.0,West,9.2,-,N/A,,Partly Cloudy,270,2013-08-12 16:53:00
1:53 PM,91.9,71.1,50,30.03,10.0,Calm,Calm,-,N/A,,Partly Cloudy,0,2013-08-12 17:53:00
2:53 PM,93.0,71.1,49,30.00,7.0,Variable,4.6,-,N/A,,Scattered Clouds,0,2013-08-12 18:53:00
3:53 PM,90.0,73.0,57,30.00,10.0,East,6.9,-,N/A,,Mostly Cloudy,90,2013-08-12 19:53:00
4:53 PM,93.0,73.0,52,29.98,10.0,SSW,5.8,-,N/A,,Partly Cloudy,200,2013-08-12 20:53:00
5:53 PM,91.0,73.0,55,29.97,10.0,SSW,6.9,-,N/A,,Mostly Cloudy,200,2013-08-12 21:53:00
6:53 PM,89.1,73.9,61,29.98,10.0,SW,8.1,-,N/A,,Clear,230,2013-08-12 22:53:00
7:53 PM,87.1,75.0,67,29.97,10.0,Calm,Calm,-,N/A,,Clear,0,2013-08-12 23:53:00
8:33 PM,86.0,75.2,70,29.98,10.0,Calm,Calm,-,N/A,,Partly Cloudy,0,2013-08-13 00:33:00
8:53 PM,82.0,75.9,82,29.98,10.0,Calm,Calm,-,N/A,,Partly Cloudy,0,2013-08-13 00:53:00
9:53 PM,81.0,77.0,88,29.99,9.0,Calm,Calm,-,N/A,,Clear,0,2013-08-13 01:53:00
10:53 PM,80.1,75.9,87,29.99,9.0,Calm,Calm,-,N/A,,Clear,0,2013-08-13 02:53:00
11:53 PM,80.1,75.0,85,29.99,10.0,Calm,Calm,-,N/A,,Partly Cloudy,0,2013-08-13 03:53:00